Regional Weather Roundup
Issued by NWS

Home | Current Version | Previous Version | Graphics & Text | Print | Product List | Glossary On
Versions: 1 2 3 4 5 6 7 8 9 10 11 12 13 14 15 16 17 18 19 20 21 22 23 24 25 26 27
000
ASUS45 KCYS 231310
RWRWY

WYOMING REGIONAL WEATHER ROUNDUP
NATIONAL WEATHER SERVICE CHEYENNE WY
700 AM MDT MON OCT 23 2017

NOTE:  "FAIR" INDICATES FEW OR NO CLOUDS BELOW 12,000 FEET
WITH NO SIGNIFICANT WEATHER AND/OR OBSTRUCTIONS TO VISIBILITY.

WYZ001-231400-
YELLOWSTONE NATIONAL PARK

CITY           SKY/WX    TMP DP  RH WIND       PRES   REMARKS
LK YELLOWSTONE   N/A     27  20  75 CALM      30.52R
W YELLOWSTONE  NOT AVBL

$$
WYZ002>013-054>058-071-098>099-231400-
NORTHERN WYOMING

CITY           SKY/WX    TMP DP  RH WIND       PRES   REMARKS
JACKSON        CLOUDY    38  18  44 VRB6      30.50R WCI  33
CODY           FAIR      44  18  35 W7G16     30.41R
GREYBULL       MOCLDY    45  20  36 NW9       30.38R
WORLAND        FAIR      35  22  58 W9        30.39R WCI  28
SHERIDAN       FAIR      46  21  37 NW14      30.35R
BUFFALO        FAIR      44  12  27 NW20G30   30.35R
GILLETTE       FAIR      40  22  48 NW18      30.32R WCI  31
HULETT         FAIR      41  21  45 W9        30.29R
NEWCASTLE      FAIR      36  21  55 NW10      30.30R WCI  28

$$
WYZ014>020-022>026-101>103-231400-
CENTRAL WYOMING

CITY           SKY/WX    TMP DP  RH WIND       PRES   REMARKS
BIG PINEY      FAIR      37  26  64 NE10      30.44R WCI  30
PINEDALE       FAIR      34  28  80 NW7       30.45R WCI  28
DUBOIS         FAIR      34  21  60 NW24G32   30.41S WCI  21
LANDER         MOCLDY    41  28  60 NW13      30.40R
RIVERTON       FAIR      39  27  62 SE3       30.41R
CASPER         CLOUDY    42  18  37 NW8       30.38R
DOUGLAS        CLOUDY    38  32  79 NW6       30.37R WCI  33

$$
WYZ021-027>030-104>119-231400-
SOUTHERN WYOMING

CITY           SKY/WX    TMP DP  RH WIND       PRES   REMARKS
EVANSTON       FAIR      39  32  76 W13       30.53R WCI  31
KEMMERER       PTSUNNY   41  32  70 CALM      30.51R
FORT BRIDGER   FAIR      44  32  64 W16G30    30.53S
ROCK SPRINGS   FAIR      43  29  57 W15G25    30.45R
DIXON          FAIR      46  31  56 W12       30.48R
RAWLINS        MOCLDY    43  29  57 W15G23    30.41R
SARATOGA       FAIR      43  30  61 W18G28    30.41R
LARAMIE        FAIR      44  26  49 W21       30.34R
CHEYENNE       CLOUDY    34  29  82 N24G32    30.36R WCI  21
TORRINGTON     CLOUDY    47  18  31 NW14      30.32R
PINE BLUFFS    DRIZZLE   34  32  93 N23G32    30.35R WCI  22

$$




USA.gov is the U.S. government's official web portal to all federal, state and local government web resources and services.